User: anonymous
Location: Fairmont
(43.6520°N, 94.4610°W)
Time: 04:05:38
(UTC-05:00)
Language:

Cosmos-2242 - Orbit

View from above orbital plane
View from above orbital plane
View from above satellite
View from above satellite

Ground track
Ground track

The orbit data is extracted from the following two-line orbital elements,

1 22626U 93024A   14237.71597454  .00000691  00000-0  76154-4 0  1787
2 22626 082.5214 288.6953 0018082 284.8141 075.1072 14.85988372153590
Epoch (UTC): 25 August 2014 17:11:00
Eccentricity: 0.0018082
inclination: 82.5214°
perigee height: 598 km
apogee height: 623 km
right ascension of ascending node: 288.6953°
argument of perigee: 284.8141°
revolutions per day: 14.85988372
mean anomaly at epoch: 75.1072°
orbit number at epoch: 15359

The dashed part of the orbit path shows where the satellite is in the earth's shadow,  

DLR